[[{"header":{"parameterUnit":"m.s-1","parameterCategory":2,"la1":30.2991,"la2":30.254,"lo1":-89.0895,"lo2":-89.0444,"dy":0.0017,"dx":0.0017,"nx":28,"ny":28,"refTime":"2023-07-22T03:00:00:Z","depth":"0","parameterNumber":2,"parameterNumberName":"U-component_of_CURRENTS"},"data":[0,0,0,0,0,0,0,0,0,0,0,0,0,0,0,0,0,0,0,0,0,0,0,0,0,0,0,0,0,0,0,0,0,0,0,0,0,0,0,0,0,0,0,0,0,0,0,0,0,0,0,0,0,0,0,0,0,0,0.4767,0.4767,0,0.4781,0.4781,0.4781,0.4747,0.4746,0.4745,0.4744,0.4758,0.4759,0.4761,0,0,0,0,0,0,0,0,0,0,0,0,0,0.4665,0.4667,0.4767,0.4767,0.4767,0.4781,0.4781,0.4781,0.4748,0.4746,0.4745,0.4743,0.4757,0.4759,0.4761,0,0,0,0,0,0,0,0,0,0,0,0,0,0.4699,0.4668,0.4767,0.475,0.4749,0.4781,0.4781,0.4781,0.4748,0.4746,0.4744,0.4742,0.4757,0.4759,0.4761,0.4812,0,0,0.4768,0.4769,0,0,0,0,0,0,0,0,0.4697,0.4703,0.4753,0.4751,0.475,0.4759,0.475,0.4791,0.4748,0.475,0.4744,0.4742,0.4758,0.476,0.477,0.4813,0.4814,0.4768,0.477,0.4771,0.4771,0,0,0,0,0,0,0,0.4695,0.4702,0.4774,0.4753,0.4751,0.4726,0.473,0.4758,0.4766,0.475,0.4747,0.4746,0.4758,0.4768,0.477,0.4814,0.4768,0.477,0.4772,0.4773,0.4845,0.4846,0,0,0,0,0,0,0.4695,0.47,0.4773,0.4774,0.4716,0.473,0.4733,0.4759,0.4765,0.4764,0.4748,0.4745,0.4765,0.4767,0.477,0.4794,0.4771,0.4773,0.4774,0.4845,0.4845,0.4846,0,0,0,0,0,0,0.4693,0.4702,0.4773,0.4734,0.4741,0.4734,0.4763,0.476,0.4759,0.4764,0.4762,0.4747,0.4763,0.4767,0.479,0.4796,0.4774,0.4776,0.4844,0.4845,0.4846,0.4867,0,0,0,0,0,0,0.4691,0.4702,0.4727,0.4735,0.4743,0.4772,0.4764,0.4762,0.4762,0.4757,0.4763,0.4763,0.4762,0.4787,0.4793,0.4798,0.4778,0.4843,0.4844,0.4845,0.4865,0.4868,0.487,0,0,0,0,0,0.4687,0.4727,0.4729,0.4737,0.4776,0.4772,0.4773,0.4762,0.4763,0.4757,0.4773,0.4762,0.4797,0.479,0.4796,0.4803,0.4843,0.4844,0.4845,0.4864,0.4867,0.487,0,0,0,0,0,0,0.4675,0.4728,0.4729,0.4777,0.4764,0.4765,0.4772,0.4766,0.4776,0.4778,0.4783,0.4784,0.4816,0.4806,0.4799,0.4825,0.4813,0.4816,0.4825,0.4829,0.4831,0.4834,0.478,0,0,0,0,0,0.4691,0.4744,0.4752,0.4781,0.4784,0.478,0.4782,0.4769,0.4777,0.4778,0.478,0.4794,0.4831,0.4824,0.4853,0.4865,0.4928,0.4869,0.4872,0.4874,0.488,0.502,0.5038,0.485,0.485,0.485,0,0,0.469,0.4725,0.4752,0.4783,0.4782,0.4769,0.4776,0.4775,0.4753,0.4783,0.477,0.482,0.4845,0.4867,0.4875,0.485,0.4957,0.4875,0.4877,0.4882,0.5024,0.5043,0.5059,0.4851,0.4851,0.4851,0,0,0.4709,0.4748,0.4794,0.4782,0.4784,0.4771,0.4768,0.4764,0.4755,0.4756,0.4793,0.485,0.4851,0.4891,0.4909,0.4945,0.499,0.4934,0.4925,0.5061,0.5079,0.5095,0.5191,0.5216,0.4907,0.4907,0.4907,0,0.4704,0.4752,0.4792,0.4802,0.4778,0.4767,0.475,0.4745,0.474,0.4755,0.4741,0.4847,0.4867,0.4944,0.4946,0.4954,0.5026,0.4912,0.5069,0.5086,0.5103,0.5197,0.5224,0.4909,0.4908,0.4908,0.4908,0,0.4725,0.4756,0.4768,0.478,0.4761,0.4741,0.472,0.4714,0.4703,0.4712,0.4785,0.4847,0.4912,0.4924,0.4939,0.5059,0.5073,0.5084,0.5067,0.5124,0.5218,0.5246,0.491,0.491,0.4909,0.4909,0,0,0.472,0.478,0.4777,0.4763,0.4739,0.4712,0.4696,0.4685,0.4697,0.4718,0.4771,0.4849,0.4919,0.4948,0.5004,0.5096,0.5271,0.5123,0.5129,0.5227,0.556,0.5428,0.5446,0.5322,0.5327,0.5331,0.5578,0,0.4706,0.473,0.4754,0.4709,0.4695,0.4677,0.4656,0.465,0.4667,0.4717,0.4816,0.4892,0.4913,0.4975,0.5081,0.5252,0.5346,0.5201,0.5482,0.5489,0.5375,0.5475,0.5137,0.5317,0.5605,0.561,0.5613,0,0.4689,0.4708,0.4692,0.4676,0.4667,0.4638,0.4609,0.4593,0.4673,0.4702,0.4818,0.4911,0.5082,0.5082,0.5391,0.5304,0.5427,0.5533,0.5546,0.5435,0.5409,0.5308,0.5357,0.5194,0.5657,0.5653,0.565,0,0.4622,0.4642,0.4623,0.4606,0.4598,0.4589,0.4572,0.4605,0.4592,0.4726,0.476,0.4987,0.5088,0.532,0.5507,0.549,0.5824,0.5837,0.5828,0.5819,0.5589,0.5551,0.5518,0.6045,0.6044,0.6044,0.6043,0,0.4578,0.4549,0.4599,0.4575,0.4526,0.4545,0.4511,0.4535,0.4601,0.4605,0.4765,0.4833,0.5153,0.5354,0.5554,0.5765,0.5875,0.5855,0.5889,0.5581,0.554,0.5432,0.5426,0.6053,0.6051,0.6049,0.6047,0,0.4497,0.4534,0.4489,0.4501,0.4494,0.4449,0.4423,0.4417,0.4488,0.4518,0.4563,0.4766,0.5016,0.5287,0.5658,0.5777,0.5865,0.6049,0.5635,0.5614,0.5449,0.5457,0.5379,0.5269,0.6137,0.6135,0.6134,0,0.4461,0.4443,0.4413,0.436,0.4361,0.4316,0.4283,0.434,0.4338,0.4452,0.4471,0.4701,0.482,0.5279,0.553,0.5853,0.5743,0.5727,0.5631,0.5404,0.5444,0.5286,0.5189,0.5348,0.534,0.5334,0.5329,0,0.4364,0.4351,0.4318,0.4219,0.417,0.4109,0.4093,0.4081,0.4155,0.4185,0.4262,0.4382,0.4733,0.4881,0.5251,0.5441,0.542,0.5608,0.5496,0.4926,0.4633,0.455,0.521,0.5273,0.5279,0.5283,0.5286,0.5288,0.4261,0.4199,0.4142,0.4023,0.3965,0.3892,0.3806,0.3829,0.3803,0.3802,0.401,0.4061,0.4305,0.4759,0.488,0.4896,0.5066,0.485,0.492,0.481,0.4553,0.5065,0.508,0.5084,0.5088,0.5091,0.5094,0,0.4071,0.402,0.3935,0.3785,0.3654,0.3692,0.3642,0.3549,0.3473,0.3537,0.3562,0.3696,0.3802,0.4026,0.4238,0.4221,0.4086,0.418,0.3865,0.3847,0.4395,0.4199,0.3867,0.3867,0.3867,0.3867,0.3867,0.3867,0.3957,0.3814,0.3769,0.35,0.3405,0.3217,0.3164,0.3087,0.308,0.2999,0.301,0.3136,0.3524,0.3721,0.3709,0.3669,0.3506,0.3333,0.3506,0.3846,0.3911,0.3972,0.3779,0.3364,0.3364,0.2665,0.2661,0.2657]},{"header":{"parameterUnit":"m.s-1","parameterCategory":2,"la1":30.2991,"la2":30.254,"lo1":-89.0895,"lo2":-89.0444,"dy":0.0017,"dx":0.0017,"nx":28,"ny":28,"refTime":"2023-07-22T03:00:00:Z","depth":"0","parameterNumber":3,"parameterNumberName":"V-component_of_CURRENTS"},"data":[0,0,0,0,0,0,0,0,0,0,0,0,0,0,0,0,0,0,0,0,0,0,0,0,0,0,0,0,0,0,0,0,0,0,0,0,0,0,0,0,0,0,0,0,0,0,0,0,0,0,0,0,0,0,0,0,0,0,0.0403,0.0403,0,0.0428,0.0429,0.043,0.043,0.0429,0.0428,0.0428,0.0367,0.0366,0.0365,0,0,0,0,0,0,0,0,0,0,0,0,0,0.0416,0.0416,0.0403,0.0403,0.0403,0.0428,0.0429,0.043,0.043,0.0429,0.0428,0.0427,0.0368,0.0367,0.0365,0,0,0,0,0,0,0,0,0,0,0,0,0,0.0426,0.0416,0.0403,0.0404,0.0404,0.0428,0.0429,0.043,0.043,0.0429,0.0428,0.0427,0.0368,0.0367,0.0365,0.0375,0,0,0.0361,0.036,0,0,0,0,0,0,0,0,0.0425,0.0426,0.0404,0.0404,0.0404,0.0422,0.0412,0.0406,0.043,0.0423,0.0428,0.0427,0.0376,0.0374,0.0387,0.0372,0.0369,0.036,0.0359,0.0359,0.0358,0,0,0,0,0,0,0,0.0425,0.0425,0.0416,0.0404,0.0404,0.0424,0.0424,0.0411,0.0406,0.0424,0.0423,0.0421,0.0376,0.0388,0.0385,0.0368,0.036,0.0359,0.0358,0.0358,0.0329,0.0329,0,0,0,0,0,0,0.0413,0.0424,0.0415,0.0417,0.0409,0.0424,0.0424,0.042,0.0408,0.0405,0.0422,0.0421,0.0392,0.0387,0.0383,0.0407,0.0359,0.0357,0.0357,0.0329,0.0329,0.0329,0,0,0,0,0,0,0.0413,0.0412,0.0414,0.0419,0.042,0.0424,0.0419,0.0421,0.0432,0.0407,0.0402,0.0431,0.0391,0.0385,0.0374,0.0404,0.0357,0.0355,0.0328,0.0329,0.0329,0.0446,0,0,0,0,0,0,0.0413,0.0412,0.0414,0.0418,0.0419,0.0434,0.042,0.0422,0.043,0.0429,0.0413,0.0406,0.0389,0.0376,0.0372,0.0401,0.0354,0.0328,0.0329,0.0329,0.0442,0.045,0.0457,0,0,0,0,0,0.0414,0.0417,0.0414,0.0414,0.0419,0.0434,0.0438,0.044,0.0431,0.0445,0.0429,0.0407,0.0375,0.0376,0.0371,0.04,0.0328,0.0328,0.0329,0.0438,0.0448,0.0457,0,0,0,0,0,0,0.0412,0.0417,0.0414,0.0415,0.0426,0.0433,0.0441,0.0444,0.0446,0.0436,0.0415,0.0409,0.0411,0.0379,0.0381,0.0386,0.0345,0.0345,0.043,0.0439,0.0447,0.0456,0.0353,0,0,0,0,0,0.0416,0.043,0.0428,0.0433,0.0433,0.0439,0.0447,0.0447,0.0444,0.0445,0.0439,0.0418,0.041,0.0403,0.0388,0.0394,0.0363,0.0403,0.0411,0.0418,0.0419,0.0414,0.0422,0.033,0.033,0.033,0,0,0.0418,0.0421,0.043,0.0436,0.044,0.0454,0.0442,0.045,0.0469,0.0435,0.0458,0.0446,0.0415,0.0428,0.0425,0.0406,0.0425,0.0418,0.0425,0.0422,0.0415,0.0424,0.0432,0.033,0.033,0.033,0,0,0.0432,0.0428,0.0444,0.0455,0.046,0.0466,0.0468,0.0479,0.0488,0.0502,0.0487,0.0497,0.0477,0.0483,0.0475,0.051,0.0466,0.0495,0.0548,0.0544,0.0552,0.0559,0.0529,0.0532,0.05,0.05,0.05,0,0.0427,0.045,0.0452,0.0466,0.048,0.0471,0.0492,0.0502,0.0514,0.0537,0.0512,0.0528,0.0507,0.0541,0.0553,0.0533,0.0506,0.0526,0.0558,0.0564,0.0569,0.0536,0.0538,0.0506,0.0505,0.0504,0.0504,0,0.0455,0.0474,0.048,0.0502,0.052,0.0532,0.0541,0.0565,0.057,0.059,0.0624,0.0608,0.0621,0.0619,0.0595,0.0631,0.0592,0.0574,0.0545,0.0586,0.0547,0.0548,0.0514,0.0512,0.051,0.0509,0,0,0.0426,0.049,0.049,0.0523,0.0539,0.0561,0.0591,0.0634,0.0681,0.068,0.0743,0.0734,0.0737,0.0726,0.0711,0.0708,0.0724,0.0658,0.0655,0.0646,0.0693,0.0668,0.0664,0.0714,0.0715,0.0716,0.0651,0,0.0441,0.0498,0.0523,0.0579,0.0606,0.0626,0.0672,0.0711,0.0739,0.0799,0.0789,0.0832,0.0772,0.0797,0.0783,0.0755,0.0729,0.0741,0.0638,0.0634,0.0623,0.0666,0.0646,0.0588,0.0651,0.0651,0.0651,0,0.0445,0.0493,0.0555,0.0647,0.0661,0.0698,0.0785,0.0827,0.0894,0.0921,0.095,0.0947,0.0962,0.0896,0.0844,0.0853,0.077,0.0727,0.0723,0.0658,0.061,0.0555,0.0585,0.0388,0.0651,0.0651,0.0651,0,0.0428,0.051,0.0574,0.0596,0.0691,0.0737,0.079,0.0868,0.0937,0.1007,0.107,0.106,0.1082,0.0991,0.0896,0.0871,0.0823,0.0778,0.0663,0.0659,0.06,0.059,0.0444,0.071,0.071,0.071,0.071,0,0.0425,0.0469,0.058,0.0609,0.0712,0.0763,0.0875,0.0931,0.1034,0.1148,0.1136,0.1216,0.1107,0.1071,0.094,0.0818,0.085,0.0679,0.0652,0.0638,0.0632,0.0422,0.0344,0.0707,0.0708,0.0709,0.0709,0,0.0383,0.045,0.0531,0.0653,0.0703,0.0773,0.093,0.1025,0.111,0.1257,0.129,0.1338,0.1299,0.1168,0.1039,0.0897,0.0673,0.0703,0.0684,0.0656,0.0358,0.0289,0.0139,0.0084,0.0567,0.0566,0.0565,0,0.0369,0.0408,0.0556,0.0631,0.069,0.0813,0.0921,0.1044,0.1164,0.1346,0.1433,0.1444,0.148,0.1278,0.1034,0.08,0.064,0.0608,0.0555,0.0346,0.0248,0.0196,0.0158,0.0511,0.051,0.0509,0.0508,0,0.0347,0.0398,0.0481,0.0642,0.0765,0.0919,0.1083,0.1189,0.1366,0.1504,0.1676,0.1716,0.1533,0.1313,0.099,0.0817,0.0491,0.058,0.0377,0.0208,0.013,0.0063,0.0526,0.05,0.0501,0.0502,0.0502,0.0502,0.0332,0.0398,0.0527,0.0683,0.0837,0.1042,0.1171,0.1364,0.1576,0.1809,0.1824,0.191,0.1569,0.114,0.0872,0.0365,0.0408,0.019,0.0126,0.0093,0.0035,0.0472,0.0413,0.0413,0.0413,0.0414,0.0414,0,0.0339,0.0439,0.0576,0.0784,0.0965,0.1048,0.1306,0.1461,0.1722,0.1906,0.2038,0.192,0.1454,0.1,0.0344,-0.0025,-0.0138,-0.0227,-0.0327,-0.034,0.0044,0.0034,-0.0124,-0.0124,-0.0123,-0.0123,-0.0123,-0.0123,0.0356,0.0483,0.0583,0.0879,0.1029,0.1274,0.1429,0.1662,0.1841,0.2073,0.2142,0.2181,0.1907,0.0587,-0.0249,-0.044,-0.0681,-0.0748,-0.0834,-0.0621,-0.0588,-0.0557,-0.0589,-0.0874,-0.0875,-0.1195,-0.1198,-0.1201]}],[{"header":{"parameterUnit":"m.s-1","parameterCategory":2,"la1":30.2991,"la2":30.254,"lo1":-89.0895,"lo2":-89.0444,"dy":0.0017,"dx":0.0017,"nx":28,"ny":28,"refTime":"2023-07-22T03:00:00:Z","depth":"2","parameterNumber":2,"parameterNumberName":"U-component_of_CURRENTS"},"data":[0,0,0,0,0,0,0,0,0,0,0,0,0,0,0,0,0,0,0,0,0,0,0,0,0,0,0,0,0,0,0,0,0,0,0,0,0,0,0,0,0,0,0,0,0,0,0,0,0,0,0,0,0,0,0,0,0,0,0.3394,0.3396,0,0.3648,0.3652,0.3656,0.3918,0.3921,0.3924,0.3926,0.4022,0.4022,0.4022,0,0,0,0,0,0,0,0,0,0,0,0,0,0.3199,0.3201,0.3394,0.3396,0.3399,0.3648,0.3652,0.3656,0.3917,0.3921,0.3924,0.3928,0.4022,0.4022,0.4022,0,0,0,0,0,0,0,0,0,0,0,0,0,0.3359,0.3202,0.3393,0.3553,0.3569,0.3647,0.3652,0.3658,0.3917,0.3921,0.3925,0.3929,0.4022,0.4022,0.4022,0.3935,0,0,0.4021,0.4021,0,0,0,0,0,0,0,0,0.3349,0.3367,0.3527,0.3542,0.356,0.3749,0.3619,0.374,0.3916,0.3793,0.3926,0.3931,0.3907,0.3917,0.3969,0.394,0.3944,0.4021,0.4021,0.4021,0.4021,0,0,0,0,0,0,0,0.3338,0.3357,0.3503,0.3529,0.3549,0.3634,0.3661,0.3645,0.3826,0.3804,0.3822,0.3836,0.3917,0.3969,0.3973,0.3945,0.4021,0.4021,0.4021,0.4021,0.401,0.401,0,0,0,0,0,0,0.3282,0.3346,0.3495,0.351,0.3454,0.3633,0.3664,0.369,0.3831,0.3855,0.3832,0.3847,0.3967,0.3973,0.3976,0.4024,0.4021,0.4021,0.4021,0.401,0.401,0.401,0,0,0,0,0,0,0.3277,0.3293,0.3484,0.3427,0.3456,0.363,0.3658,0.3693,0.3833,0.3852,0.3877,0.3945,0.3971,0.3977,0.3983,0.4024,0.4021,0.4021,0.4011,0.401,0.401,0.4024,0,0,0,0,0,0,0.3271,0.329,0.3314,0.3423,0.3457,0.3515,0.3655,0.3695,0.3825,0.385,0.3953,0.3963,0.3975,0.3983,0.3983,0.4023,0.4021,0.4011,0.4011,0.401,0.4024,0.4025,0.4025,0,0,0,0,0,0.3263,0.3259,0.3314,0.3333,0.3477,0.3512,0.3537,0.3681,0.3826,0.3839,0.3924,0.3965,0.3983,0.398,0.3981,0.4023,0.4011,0.4011,0.401,0.4024,0.4025,0.4025,0,0,0,0,0,0,0.3242,0.3287,0.3351,0.3381,0.3434,0.3553,0.3573,0.3717,0.3811,0.3866,0.3935,0.3944,0.3976,0.3976,0.3974,0.4017,0.4014,0.4013,0.4024,0.4025,0.4025,0.413,0.4021,0,0,0,0,0,0.3226,0.3223,0.329,0.3328,0.3323,0.3474,0.3529,0.3645,0.3728,0.3789,0.3884,0.3951,0.3958,0.3976,0.3983,0.3981,0.4038,0.4015,0.4016,0.4016,0.41,0.42,0.422,0.4009,0.4009,0.4009,0,0,0.324,0.3262,0.3275,0.3318,0.3369,0.3412,0.352,0.3599,0.3705,0.3765,0.3927,0.3952,0.3956,0.397,0.3987,0.3987,0.4084,0.4016,0.4016,0.4102,0.4203,0.4224,0.4243,0.4008,0.4008,0.4008,0,0,0.322,0.3256,0.3226,0.3243,0.3303,0.3399,0.3435,0.3585,0.3689,0.3786,0.3878,0.3936,0.3971,0.4005,0.4011,0.4012,0.4083,0.4017,0.411,0.4203,0.4224,0.4243,0.4259,0.428,0.4019,0.4019,0.4019,0,0.3243,0.3218,0.3231,0.3205,0.3244,0.3402,0.343,0.3537,0.3718,0.3801,0.3827,0.3993,0.3995,0.4047,0.4071,0.4023,0.4079,0.4102,0.421,0.4231,0.4251,0.4264,0.4287,0.402,0.4019,0.4019,0.4019,0,0.3143,0.3182,0.3149,0.3185,0.3244,0.3265,0.3396,0.3538,0.3709,0.3837,0.3958,0.3976,0.4095,0.4081,0.4085,0.4223,0.4212,0.4197,0.4221,0.4274,0.4281,0.4305,0.402,0.402,0.402,0.402,0,0,0.311,0.3074,0.3083,0.3129,0.3228,0.3289,0.3437,0.3592,0.3737,0.3894,0.4051,0.4101,0.4203,0.4222,0.4238,0.4333,0.447,0.436,0.4364,0.4399,0.4662,0.4171,0.415,0.4501,0.4507,0.4512,0.4582,0,0.3048,0.298,0.3007,0.311,0.3131,0.3296,0.3418,0.3621,0.3774,0.3959,0.4056,0.4182,0.4216,0.4286,0.4392,0.4427,0.4551,0.4452,0.4591,0.4595,0.4173,0.4167,0.3982,0.3991,0.4606,0.461,0.4613,0,0.3023,0.2956,0.2962,0.3109,0.3122,0.324,0.3499,0.3615,0.3871,0.3993,0.418,0.4278,0.4436,0.4466,0.464,0.4585,0.4697,0.4732,0.4734,0.4318,0.4151,0.4053,0.4011,0.4653,0.465,0.4647,0.4644,0,0.3031,0.304,0.3046,0.3061,0.3181,0.329,0.3411,0.3661,0.3792,0.4061,0.4193,0.4368,0.4492,0.4634,0.4707,0.473,0.4869,0.4868,0.455,0.4513,0.4404,0.4342,0.5122,0.5122,0.5121,0.5121,0.5121,0,0.3003,0.3046,0.3065,0.3026,0.3123,0.328,0.3459,0.3597,0.3856,0.4,0.4223,0.4371,0.4581,0.4665,0.4736,0.4622,0.4888,0.4585,0.451,0.4376,0.4315,0.4951,0.493,0.5124,0.5123,0.5123,0.5122,0,0.3057,0.3034,0.3076,0.3106,0.3132,0.3242,0.3455,0.358,0.3832,0.4032,0.4145,0.444,0.4502,0.4571,0.4747,0.4593,0.4559,0.4518,0.427,0.4157,0.4156,0.4136,0.4141,0.4124,0.411,0.4099,0.4089,0,0.3062,0.3084,0.3069,0.3068,0.3071,0.3229,0.331,0.3566,0.3706,0.4042,0.4115,0.4311,0.4364,0.4279,0.4154,0.4039,0.4318,0.3724,0.3696,0.4134,0.4064,0.4065,0.4063,0.3586,0.3573,0.3562,0.3554,0,0.3024,0.3056,0.2964,0.2964,0.3036,0.316,0.3293,0.3388,0.369,0.3826,0.3959,0.4021,0.3987,0.3754,0.3556,0.3479,0.3654,0.3476,0.4121,0.3743,0.3582,0.352,0.3546,0.3458,0.3468,0.3475,0.348,0.3484,0.2992,0.2963,0.2863,0.2903,0.2982,0.3098,0.311,0.3251,0.3404,0.3498,0.364,0.356,0.352,0.3059,0.2925,0.2788,0.3005,0.289,0.2941,0.2999,0.2801,0.2612,0.2271,0.2274,0.2276,0.2278,0.228,0,0.2901,0.2861,0.2814,0.284,0.291,0.3003,0.3098,0.3061,0.3082,0.3122,0.3116,0.2738,0.2584,0.2599,0.2272,0.2073,0.2266,0.1974,0.2339,0.2426,0.2507,0.2304,0.1633,0.1631,0.1629,0.1628,0,0,0.2809,0.2706,0.2683,0.2767,0.2836,0.2855,0.2871,0.2738,0.2707,0.252,0.2416,0.2434,0.2484,0.2046,0.1938,0.1794,0.2124,0.1702,0.2221,0.2745,0.2826,0.3009,0.2781,0,0,0,0,0]},{"header":{"parameterUnit":"m.s-1","parameterCategory":2,"la1":30.2991,"la2":30.254,"lo1":-89.0895,"lo2":-89.0444,"dy":0.0017,"dx":0.0017,"nx":28,"ny":28,"refTime":"2023-07-22T03:00:00:Z","depth":"2","parameterNumber":3,"parameterNumberName":"V-component_of_CURRENTS"},"data":[0,0,0,0,0,0,0,0,0,0,0,0,0,0,0,0,0,0,0,0,0,0,0,0,0,0,0,0,0,0,0,0,0,0,0,0,0,0,0,0,0,0,0,0,0,0,0,0,0,0,0,0,0,0,0,0,0,0,0.0067,0.0068,0,0.0139,0.014,0.0141,0.0185,0.0185,0.0185,0.0184,0.0119,0.0118,0.0116,0,0,0,0,0,0,0,0,0,0,0,0,0,0.0052,0.0052,0.0067,0.0068,0.0068,0.0138,0.014,0.0142,0.0185,0.0185,0.0185,0.0184,0.0119,0.0118,0.0116,0,0,0,0,0,0,0,0,0,0,0,0,0,0.009,0.0052,0.0067,0.0094,0.0097,0.0138,0.014,0.0142,0.0185,0.0185,0.0185,0.0184,0.012,0.0118,0.0116,0.0112,0,0,0.0109,0.0108,0,0,0,0,0,0,0,0,0.0088,0.0091,0.009,0.0092,0.0095,0.0147,0.0111,0.0123,0.0186,0.0158,0.0184,0.0184,0.0112,0.0111,0.0136,0.0108,0.0106,0.0109,0.0108,0.0107,0.0106,0,0,0,0,0,0,0,0.0085,0.0089,0.0102,0.009,0.0093,0.0131,0.0135,0.0115,0.0139,0.016,0.0162,0.0161,0.0114,0.0138,0.0134,0.0105,0.0109,0.0107,0.0106,0.0105,0.0052,0.0052,0,0,0,0,0,0,0.0061,0.0086,0.0099,0.0103,0.0084,0.013,0.0136,0.0136,0.0142,0.0142,0.0161,0.0163,0.0142,0.0136,0.0131,0.0144,0.0107,0.0105,0.0103,0.0052,0.0052,0.0052,0,0,0,0,0,0,0.006,0.0061,0.0096,0.0092,0.0098,0.013,0.013,0.0137,0.0176,0.0143,0.0142,0.0192,0.0141,0.0134,0.0107,0.014,0.0104,0.0102,0.0052,0.0052,0.0052,0.0157,0,0,0,0,0,0,0.0059,0.0061,0.0067,0.009,0.0097,0.0123,0.013,0.0139,0.0172,0.0175,0.0169,0.0162,0.014,0.0111,0.0105,0.0137,0.01,0.0052,0.0052,0.0052,0.0153,0.016,0.0166,0,0,0,0,0,0.0059,0.0068,0.0067,0.0069,0.0099,0.0123,0.0132,0.0157,0.0173,0.0191,0.0176,0.0163,0.0106,0.0109,0.0102,0.0134,0.0053,0.0052,0.0052,0.0151,0.0159,0.0166,0,0,0,0,0,0,0.0074,0.0073,0.0073,0.0083,0.0099,0.0128,0.0142,0.0169,0.0181,0.0176,0.0159,0.0151,0.0133,0.0112,0.0116,0.0113,0.0078,0.0077,0.0155,0.0163,0.0169,0.0218,0.0098,0,0,0,0,0,0.0075,0.0081,0.0084,0.0098,0.0094,0.0124,0.0142,0.016,0.0165,0.0175,0.018,0.0161,0.0128,0.0128,0.0093,0.0101,0.0076,0.0114,0.0121,0.0127,0.0159,0.0135,0.0143,0.0051,0.0051,0.0051,0,0,0.0086,0.0087,0.0091,0.0102,0.0111,0.0135,0.0136,0.0158,0.0199,0.0158,0.0212,0.0174,0.0126,0.0126,0.012,0.0118,0.0134,0.0126,0.0132,0.0162,0.0136,0.0145,0.0153,0.0051,0.0051,0.0051,0,0,0.0114,0.0103,0.0116,0.0124,0.0133,0.015,0.0159,0.0194,0.0222,0.0248,0.0221,0.0208,0.0191,0.0177,0.0158,0.0177,0.0151,0.0166,0.0266,0.0242,0.0251,0.0258,0.0224,0.0227,0.0192,0.0192,0.0192,0,0.0122,0.0147,0.0128,0.0143,0.0161,0.016,0.0193,0.0218,0.0257,0.0287,0.0266,0.0263,0.0218,0.0227,0.0238,0.0198,0.0179,0.0247,0.0255,0.0261,0.0267,0.023,0.0233,0.0197,0.0197,0.0196,0.0196,0,0.016,0.0183,0.0187,0.0207,0.0226,0.0247,0.0262,0.0306,0.0334,0.0366,0.0388,0.0339,0.0349,0.0326,0.0292,0.0322,0.0291,0.025,0.0247,0.0284,0.0241,0.0242,0.0204,0.0203,0.0201,0.02,0,0,0.0157,0.0206,0.0205,0.0247,0.0261,0.0291,0.0338,0.0395,0.0459,0.0472,0.0553,0.0499,0.0499,0.0478,0.0438,0.0433,0.0438,0.0386,0.0382,0.0374,0.039,0.032,0.0313,0.041,0.0411,0.0412,0.034,0,0.0191,0.0255,0.0266,0.0344,0.038,0.0396,0.0455,0.0504,0.0541,0.0616,0.0581,0.0615,0.0547,0.0565,0.0546,0.0452,0.0449,0.0462,0.0339,0.0335,0.0286,0.0315,0.0279,0.021,0.0341,0.0341,0.0341,0,0.022,0.0265,0.0342,0.0444,0.0457,0.0506,0.0608,0.0662,0.073,0.0763,0.0793,0.0773,0.0766,0.0704,0.0598,0.0614,0.0531,0.0458,0.0452,0.0362,0.0268,0.0194,0.0206,0.0341,0.0341,0.0341,0.0341,0,0.0242,0.0326,0.0404,0.0427,0.0522,0.0577,0.0635,0.0711,0.0789,0.0867,0.0939,0.0901,0.0914,0.0795,0.0658,0.0632,0.0541,0.0466,0.0329,0.0322,0.0255,0.0241,0.0422,0.0422,0.0422,0.0422,0.0422,0,0.0275,0.0332,0.0429,0.0464,0.0587,0.0626,0.0752,0.0818,0.0917,0.1036,0.1023,0.111,0.0948,0.0883,0.0715,0.053,0.0575,0.0364,0.0309,0.0285,0.0275,0.0361,0.0355,0.0419,0.042,0.0421,0.0421,0,0.0267,0.0331,0.0432,0.0547,0.0602,0.0682,0.0838,0.0934,0.1021,0.1178,0.122,0.1267,0.1175,0.0994,0.0805,0.0617,0.043,0.0366,0.0347,0.0291,0.0205,0.0205,0.0171,0.0168,0.0165,0.0163,0.0162,0,0.0267,0.0317,0.0478,0.0567,0.0621,0.0751,0.0859,0.0979,0.1094,0.1285,0.1377,0.1372,0.1371,0.1056,0.0737,0.0416,0.0431,0.0188,0.012,0.0235,0.0185,0.0188,0.0191,0.0062,0.0059,0.0057,0.0056,0,0.0257,0.0316,0.0408,0.0591,0.0727,0.0885,0.1046,0.1163,0.1326,0.1466,0.1624,0.1631,0.1358,0.1018,0.0607,0.0394,0.0215,0.0135,0.0282,0.0129,0.0126,0.0079,0.0086,0.0039,0.004,0.0042,0.0043,0.0043,0.0247,0.0323,0.0466,0.0648,0.0813,0.1023,0.116,0.1341,0.1553,0.1751,0.174,0.1707,0.1324,0.0744,0.0424,0.0098,0.0108,-0.0056,-0.0048,-0.0037,-0.0038,-0.0046,-0.0166,-0.0166,-0.0165,-0.0165,-0.0164,0,0.0264,0.0369,0.0524,0.0762,0.0949,0.1035,0.1299,0.1437,0.1692,0.1788,0.1857,0.1453,0.1077,0.0705,0.0174,-0.0152,-0.0143,-0.0228,-0.0169,-0.0153,-0.0138,-0.014,-0.0298,-0.0298,-0.0298,-0.0299,0,0,0.0288,0.0439,0.055,0.0863,0.1017,0.1262,0.1423,0.1624,0.1738,0.1831,0.1761,0.158,0.1106,0.068,0.026,-0.0005,0.0016,-0.0047,0.0077,0.0211,0.0231,-0.0042,-0.003,0,0,0,0,0]}],[{"header":{"parameterUnit":"m.s-1","parameterCategory":2,"la1":30.2991,"la2":30.254,"lo1":-89.0895,"lo2":-89.0444,"dy":0.0017,"dx":0.0017,"nx":28,"ny":28,"refTime":"2023-07-22T03:00:00:Z","depth":"4","parameterNumber":2,"parameterNumberName":"U-component_of_CURRENTS"},"data":[0,0,0,0,0,0,0,0,0,0,0,0,0,0,0,0,0,0,0,0,0,0,0,0,0,0,0,0,0,0,0,0,0,0,0,0,0,0,0,0,0,0,0,0,0,0,0,0,0,0,0,0,0,0,0,0,0,0,-0.0316,-0.0319,0,-0.0469,-0.0469,-0.0469,-0.0529,-0.053,-0.0532,-0.0533,-0.0587,-0.0587,-0.0587,0,0,0,0,0,0,0,0,0,0,0,0,0,-0.0171,-0.0171,-0.0316,-0.0319,-0.0323,-0.0469,-0.0469,-0.0469,-0.0529,-0.053,-0.0532,-0.0533,-0.0587,-0.0587,-0.0587,0,0,0,0,0,0,0,0,0,0,0,0,0,-0.0252,-0.0171,-0.0315,-0.0383,-0.0392,-0.0469,-0.0469,-0.047,-0.0529,-0.0531,-0.0532,-0.0534,-0.0587,-0.0587,-0.0587,-0.0553,0,0,-0.0589,-0.0589,0,0,0,0,0,0,0,0,-0.0247,-0.0255,-0.037,-0.0379,-0.039,-0.0498,-0.0439,-0.0499,-0.0528,-0.0458,-0.0533,-0.0535,-0.0558,-0.0561,-0.0561,-0.0555,-0.0558,-0.0589,-0.0589,-0.0589,-0.0589,0,0,0,0,0,0,0,-0.0241,-0.025,-0.0358,-0.0374,-0.0386,-0.0441,-0.0451,-0.045,-0.048,-0.0464,-0.0473,-0.0518,-0.056,-0.0561,-0.0563,-0.0558,-0.0589,-0.0589,-0.0589,-0.0589,-0.0481,-0.0478,0,0,0,0,0,0,-0.0252,-0.0243,-0.0354,-0.0365,-0.0342,-0.0443,-0.0454,-0.0446,-0.0482,-0.0496,-0.0517,-0.0521,-0.0559,-0.0563,-0.0565,-0.0509,-0.0589,-0.0589,-0.059,-0.0484,-0.048,-0.0476,0,0,0,0,0,0,-0.0247,-0.0257,-0.0348,-0.0325,-0.0343,-0.0444,-0.0435,-0.0449,-0.0473,-0.0527,-0.0535,-0.0532,-0.0561,-0.0565,-0.0541,-0.0512,-0.059,-0.059,-0.0487,-0.0482,-0.0478,-0.0407,0,0,0,0,0,0,-0.024,-0.0253,-0.0237,-0.0324,-0.0346,-0.0383,-0.0436,-0.0451,-0.0506,-0.0512,-0.0542,-0.0548,-0.0562,-0.054,-0.0542,-0.0514,-0.059,-0.0491,-0.0485,-0.048,-0.0414,-0.0401,-0.039,0,0,0,0,0,-0.0234,-0.0212,-0.0233,-0.0249,-0.0322,-0.0384,-0.0395,-0.0465,-0.0505,-0.0494,-0.0503,-0.0548,-0.0504,-0.0538,-0.054,-0.0513,-0.0494,-0.0487,-0.048,-0.0419,-0.0403,-0.039,0,0,0,0,0,0,-0.0174,-0.0221,-0.0245,-0.0247,-0.0309,-0.0401,-0.0404,-0.0468,-0.0469,-0.046,-0.0512,-0.0516,-0.0489,-0.0495,-0.0532,-0.0457,-0.0504,-0.0498,-0.0457,-0.0443,-0.0431,-0.0482,-0.0591,0,0,0,0,0,-0.0147,-0.0121,-0.0205,-0.0212,-0.0224,-0.0312,-0.0348,-0.0393,-0.0429,-0.0434,-0.0449,-0.045,-0.0455,-0.0448,-0.044,-0.0398,-0.0434,-0.0376,-0.0364,-0.0354,-0.0392,-0.042,-0.0416,-0.0453,-0.0453,-0.0453,0,0,-0.0151,-0.0161,-0.0164,-0.0195,-0.0232,-0.0264,-0.033,-0.0365,-0.0396,-0.0434,-0.0418,-0.0414,-0.0436,-0.0388,-0.0375,-0.0394,-0.0343,-0.0345,-0.0337,-0.0381,-0.0412,-0.041,-0.0407,-0.0448,-0.0449,-0.045,0,0,-0.0133,-0.0119,-0.0092,-0.0112,-0.016,-0.0218,-0.0235,-0.0291,-0.0301,-0.0283,-0.0329,-0.0321,-0.0283,-0.0317,-0.0331,-0.025,-0.0289,-0.0212,-0.019,-0.0214,-0.0213,-0.0213,-0.019,-0.0189,-0.0196,-0.0196,-0.0196,0,-0.0137,-0.0105,-0.0107,-0.0084,-0.0122,-0.0201,-0.022,-0.024,-0.0283,-0.028,-0.0255,-0.0254,-0.0267,-0.0299,-0.0252,-0.0236,-0.0225,-0.0249,-0.0205,-0.0206,-0.0208,-0.0185,-0.0185,-0.0191,-0.0192,-0.0192,-0.0193,0,-0.011,-0.0079,-0.0062,-0.0057,-0.0091,-0.0106,-0.0162,-0.0157,-0.0169,-0.0194,-0.0176,-0.0177,-0.0182,-0.017,-0.0184,-0.0196,-0.0172,-0.0199,-0.0258,-0.0201,-0.0178,-0.0179,-0.0185,-0.0187,-0.0188,-0.0189,0,0,-0.0144,-0.0059,-0.0055,-0.0034,-0.0069,-0.0101,-0.0116,-0.0163,-0.0168,-0.0147,-0.0151,-0.0149,-0.0136,-0.0153,-0.017,-0.0194,-0.0163,-0.0177,-0.018,-0.0182,-0.0161,-0.0051,-0.0041,-0.0166,-0.0167,-0.0168,-0.0119,0,-0.0136,-0.0059,-0.0052,-0.005,-0.0029,-0.0075,-0.0097,-0.0132,-0.0121,-0.011,-0.0136,-0.011,-0.0135,-0.0096,-0.0135,-0.0166,-0.0172,-0.0172,-0.0194,-0.0195,-0.0129,-0.0043,-0.0171,-0.012,-0.0121,-0.0121,-0.0121,0,-0.0127,-0.0066,-0.0026,-0.0003,-0.0005,-0.0042,-0.0075,-0.0083,-0.0094,-0.005,-0.0048,-0.0048,-0.0083,-0.0089,-0.0152,-0.0132,-0.0139,-0.0169,-0.0168,-0.0112,-0.0089,-0.0201,-0.0125,-0.0124,-0.0124,-0.0124,-0.0124,0,-0.0128,-0.0068,-0.003,-0.0019,-0.001,-0.0024,-0.0049,-0.0065,-0.0027,0.0003,0.006,0.0001,0.0027,-0.004,-0.0072,-0.0085,-0.0133,-0.0162,-0.0085,-0.0075,-0.0231,-0.0233,-0.0214,-0.0214,-0.0214,-0.0214,-0.0214,0,-0.0119,-0.0089,-0.0018,0.0012,0.0026,0.0014,0.0027,0.0031,0.0061,0.0114,0.0107,0.0122,0.0049,0.0018,-0.0047,-0.0046,-0.0102,-0.0077,-0.0061,-0.0186,-0.0183,-0.0228,-0.023,-0.0212,-0.0213,-0.0213,-0.0213,0,-0.0122,-0.0068,-0.0005,0.0036,0.0044,0.006,0.0093,0.012,0.0166,0.0235,0.0268,0.025,0.0237,0.016,0.0074,0.004,-0.0011,-0.0002,-0.0084,-0.0076,0.006,0.0061,0.01,0.0104,0.0108,0.0111,0.0113,0,-0.0112,-0.0063,0.0031,0.0068,0.0086,0.0121,0.014,0.018,0.0216,0.0294,0.031,0.0348,0.033,0.0318,0.0191,0.0129,0.0101,0.0107,0.0031,0.0078,0.0088,0.0084,0.0081,0.0119,0.012,0.0121,0.0122,0,-0.0085,-0.0041,0.0017,0.0104,0.0137,0.0191,0.0217,0.0255,0.0309,0.0366,0.0449,0.0467,0.0457,0.0377,0.0374,0.0279,0.0113,0.0143,0.0133,0.0062,0.0101,0.0107,0.01,0.0134,0.0132,0.0131,0.013,0,-0.0072,-0.0027,0.0057,0.0107,0.0176,0.0215,0.0239,0.0297,0.036,0.046,0.0466,0.0479,0.0486,0.0453,0.0388,0.0386,0.0355,0.0335,0.0315,0.03,0.033,0.0407,0.0558,0,0,0,0,0,-0.0053,-0.0019,0.0047,0.0109,0.0178,0.0202,0.0261,0.028,0.0329,0.0444,0.0491,0.0504,0.0526,0.0464,0.0491,0.036,0.0274,0.0382,0.0222,0.0202,0.0188,0.0196,0,0,0,0,0,0,-0.0047,0.0019,0.0039,0.0089,0.0124,0.0185,0.0221,0.0263,0.0322,0.0402,0.0405,0.0512,0.0482,0.053,0.0491,0.0479,0.0384,0.0396,0.0397,0.021,0.0197,0.0186,0.0189,0,0,0,0,0]},{"header":{"parameterUnit":"m.s-1","parameterCategory":2,"la1":30.2991,"la2":30.254,"lo1":-89.0895,"lo2":-89.0444,"dy":0.0017,"dx":0.0017,"nx":28,"ny":28,"refTime":"2023-07-22T03:00:00:Z","depth":"4","parameterNumber":3,"parameterNumberName":"V-component_of_CURRENTS"},"data":[0,0,0,0,0,0,0,0,0,0,0,0,0,0,0,0,0,0,0,0,0,0,0,0,0,0,0,0,0,0,0,0,0,0,0,0,0,0,0,0,0,0,0,0,0,0,0,0,0,0,0,0,0,0,0,0,0,0,0.0401,0.04,0,0.0346,0.0346,0.0346,0.0284,0.0282,0.0281,0.0279,0.0054,0.0049,0.0045,0,0,0,0,0,0,0,0,0,0,0,0,0,0.0441,0.0441,0.0401,0.04,0.0399,0.0346,0.0346,0.0346,0.0284,0.0282,0.028,0.0279,0.0055,0.005,0.0044,0,0,0,0,0,0,0,0,0,0,0,0,0,0.0415,0.0441,0.0402,0.0356,0.0351,0.0346,0.0346,0.0346,0.0285,0.0282,0.028,0.0278,0.0057,0.005,0.0044,0.0049,0,0,0.0023,0.002,0,0,0,0,0,0,0,0,0.0417,0.0415,0.0364,0.0359,0.0354,0.0313,0.0277,0.0236,0.0285,0.0317,0.0279,0.0277,0.0122,0.011,0.0117,0.0038,0.0029,0.0022,0.0018,0.0015,0.0013,0,0,0,0,0,0,0,0.0419,0.0417,0.0387,0.0363,0.0356,0.0334,0.0329,0.027,0.0236,0.0314,0.0308,0.0291,0.0118,0.0124,0.0111,0.0025,0.0022,0.0016,0.0012,0.001,-0.0174,-0.0175,0,0,0,0,0,0,0.0415,0.0419,0.0388,0.0384,0.0372,0.0335,0.0329,0.0334,0.024,0.0223,0.0293,0.0289,0.0137,0.0119,0.0102,-0.0011,0.0015,0.0009,0.0005,-0.0173,-0.0174,-0.0175,0,0,0,0,0,0,0.0417,0.0414,0.039,0.0393,0.0387,0.0336,0.0343,0.0334,0.0319,0.0225,0.0205,0.0282,0.0134,0.0112,0.0037,-0.0016,0.0006,-0.0,-0.0172,-0.0174,-0.0175,-0.0165,0,0,0,0,0,0,0.0419,0.0416,0.044,0.0394,0.0387,0.0383,0.0344,0.0335,0.031,0.0303,0.0209,0.0187,0.0131,0.0048,0.003,-0.0025,-0.0006,-0.0171,-0.0173,-0.0174,-0.0165,-0.0166,-0.0167,0,0,0,0,0,0.0421,0.0438,0.0442,0.0438,0.0416,0.0383,0.0379,0.0338,0.0311,0.0315,0.0244,0.0189,0.0024,0.0043,0.0022,-0.0037,-0.0171,-0.0172,-0.0174,-0.0164,-0.0166,-0.0167,0,0,0,0,0,0,0.0453,0.0432,0.0435,0.0444,0.042,0.0369,0.0374,0.0339,0.0294,0.0289,0.0191,0.0165,0.008,0.0032,0.0054,-0.0092,-0.0087,-0.0093,-0.0073,-0.0075,-0.0076,-0.0076,-0.0011,0,0,0,0,0,0.0479,0.0499,0.0462,0.0473,0.0468,0.0427,0.0414,0.0388,0.0332,0.0312,0.0215,0.0133,0.0065,0.0005,-0.0053,-0.013,-0.014,-0.0184,-0.0185,-0.0186,-0.0198,-0.022,-0.0224,-0.0181,-0.0181,-0.0181,0,0,0.049,0.0486,0.0494,0.0485,0.0472,0.0459,0.0415,0.0402,0.036,0.0292,0.0194,0.0133,0.0051,-0.0034,-0.008,-0.0091,-0.0201,-0.0188,-0.0189,-0.0201,-0.0222,-0.0226,-0.023,-0.0182,-0.0182,-0.0182,0,0,0.0508,0.0528,0.0545,0.0537,0.0523,0.0496,0.0487,0.0422,0.0368,0.0284,0.0225,0.0138,0.0003,-0.0063,-0.0112,-0.0153,-0.019,-0.0187,-0.0221,-0.0242,-0.0245,-0.0248,-0.025,-0.0254,-0.0208,-0.0208,-0.0208,0,0.0527,0.0541,0.0541,0.0551,0.0527,0.0506,0.0489,0.0452,0.0352,0.0275,0.0246,0.005,-0.0014,-0.0119,-0.0141,-0.0161,-0.0167,-0.0209,-0.0242,-0.0246,-0.0249,-0.0251,-0.0255,-0.0208,-0.0208,-0.0208,-0.0208,0,0.0543,0.0563,0.0569,0.0577,0.0555,0.0549,0.0486,0.0429,0.0344,0.0263,0.0119,0.0041,-0.0092,-0.0124,-0.0155,-0.023,-0.0221,-0.0221,-0.0234,-0.0253,-0.0253,-0.0258,-0.0207,-0.0208,-0.0208,-0.0208,0,0,0.0544,0.0577,0.0578,0.0568,0.0565,0.0528,0.0472,0.0372,0.0289,0.0181,0.0041,-0.0069,-0.0132,-0.0186,-0.0234,-0.0264,-0.0286,-0.0263,-0.0264,-0.0258,-0.0319,-0.0315,-0.0319,-0.029,-0.0291,-0.0292,-0.0302,0,0.055,0.0571,0.0569,0.0546,0.0536,0.0492,0.0419,0.0329,0.0226,0.0092,-0.0008,-0.0122,-0.0147,-0.0207,-0.0247,-0.0283,-0.0301,-0.0283,-0.0309,-0.031,-0.0299,-0.0326,-0.0295,-0.0306,-0.0307,-0.0307,-0.0308,0,0.0553,0.0558,0.0562,0.0494,0.0478,0.0464,0.0324,0.0266,0.0119,0.0029,-0.0086,-0.0174,-0.0266,-0.0256,-0.0333,-0.0321,-0.0321,-0.0329,-0.0329,-0.0338,-0.0316,-0.0289,-0.0316,-0.0315,-0.0315,-0.0314,-0.0314,0,0.0533,0.0524,0.0521,0.0516,0.0463,0.0417,0.0373,0.0243,0.0174,0.0028,-0.0049,-0.0189,-0.0253,-0.0288,-0.0338,-0.0338,-0.0386,-0.0386,-0.0374,-0.0373,-0.0374,-0.037,-0.0404,-0.0404,-0.0404,-0.0404,-0.0404,0,0.0517,0.0508,0.0522,0.0526,0.0462,0.0419,0.034,0.026,0.0169,0.0081,-0.0051,-0.0152,-0.026,-0.033,-0.0347,-0.0384,-0.0393,-0.0389,-0.0385,-0.0367,-0.0363,-0.0375,-0.0372,-0.0405,-0.0405,-0.0405,-0.0404,0,0.0498,0.0531,0.0522,0.0488,0.0479,0.0438,0.0392,0.0323,0.0246,0.0143,0.0104,-0.0107,-0.0225,-0.0302,-0.0373,-0.0392,-0.0415,-0.0404,-0.0371,-0.0363,-0.0385,-0.0381,-0.0426,-0.0426,-0.0426,-0.0426,-0.0427,0,0.049,0.0506,0.0522,0.0536,0.0541,0.0502,0.0471,0.0389,0.0313,0.0157,0.0079,-0.0066,-0.0206,-0.029,-0.0385,-0.0419,-0.0407,-0.0408,-0.0419,-0.04,-0.0392,-0.0388,-0.0384,-0.0427,-0.0427,-0.0427,-0.0427,0,0.0455,0.0498,0.049,0.0574,0.0575,0.0527,0.0471,0.0409,0.0284,0.0235,0.008,-0.0028,-0.0176,-0.0305,-0.0321,-0.0348,-0.0419,-0.041,-0.041,-0.0421,-0.0402,-0.0393,-0.0388,-0.0427,-0.0427,-0.0427,-0.0427,0,0.0431,0.0442,0.0514,0.0576,0.0625,0.0577,0.0484,0.0387,0.0318,0.0143,0.0094,-0.0055,-0.0153,-0.0269,-0.0298,-0.0325,-0.0345,-0.033,-0.0334,-0.0335,-0.0316,-0.0279,-0.0274,0,0,0,0,0,0.0403,0.0468,0.0521,0.0554,0.0622,0.0679,0.0522,0.0398,0.026,0.0189,0.0158,0.0035,-0.0085,-0.0201,-0.0222,-0.0338,-0.0375,-0.0368,-0.0363,-0.0431,-0.043,-0.0425,0,0,0,0,0,0,0.0385,0.0447,0.0523,0.0616,0.0687,0.0688,0.0627,0.0458,0.0365,0.0249,0.0167,0.0134,-0.0015,0.0031,-0.0152,-0.0186,-0.0178,-0.0432,-0.0432,-0.0431,-0.043,-0.043,-0.0425,0,0,0,0,0]}]]